| time (UTC) | temp C | wind direction | speed KPH | gust KPH | rain 1hr cm | rain 24hr cm | rain mn cm | humidity % | barometer mb |
| 20260507031015 | 11 | 200 | 1.6 | 3.2 | 0.00 | 0.00 | 0.00 | 65 | 1015.8 |
| 20260507030512 | 12 | 210 | 1.6 | 3.2 | 0.00 | 0.00 | 0.00 | 67 | 1015.7 |
| 20260507030029 | 11 | 229 | 1.6 | 3.2 | 0.00 | 0.00 | 0.00 | 67 | 1015.8 |
| 20260507025509 | 11 | 216 | 1.6 | 4.8 | 0.00 | 0.00 | 0.00 | 67 | 1015.8 |
| 20260507025012 | 11 | 226 | 1.6 | 4.8 | 0.00 | 0.00 | 0.00 | 67 | 1015.8 |
| 20260507024527 | 11 | 212 | 1.6 | 4.8 | 0.00 | 0.00 | 0.00 | 67 | 1015.8 |
| 20260507024012 | 11 | 214 | 1.6 | 4.8 | 0.00 | 0.00 | 0.00 | 67 | 1015.9 |
| 20260507023511 | 12 | 205 | 1.6 | 4.8 | 0.00 | 0.00 | 0.00 | 67 | 1015.8 |
| 20260507023028 | 12 | 219 | 1.6 | 3.2 | 0.00 | 0.00 | 0.00 | 67 | 1015.8 |
| 20260507022510 | 12 | 217 | 1.6 | 3.2 | 0.00 | 0.00 | 0.00 | 66 | 1015.9 |
| 20260507022007 | 12 | 0 | 0.0 | 3.2 | 0.00 | 0.00 | 0.00 | 64 | 1015.9 |
| 20260507021528 | 12 | 169 | 0.0 | 3.2 | 0.00 | 0.00 | 0.00 | 69 | 1015.8 |
| 20260507021009 | 12 | 0 | 0.0 | 3.2 | 0.00 | 0.00 | 0.00 | 65 | 1015.8 |
| 20260507020512 | 12 | 239 | 0.0 | 3.2 | 0.00 | 0.00 | 0.00 | 64 | 1015.8 |
| 20260507020028 | 12 | 159 | 0.0 | 3.2 | 0.00 | 0.00 | 0.00 | 63 | 1015.8 |
| 20260507015507 | 12 | 0 | 0.0 | 4.8 | 0.00 | 0.00 | 0.00 | 62 | 1015.9 |
| 20260507015011 | 12 | 216 | 0.0 | 4.8 | 0.00 | 0.00 | 0.00 | 63 | 1015.8 |
| 20260507014542 | 12 | 197 | 0.0 | 4.8 | 0.00 | 0.00 | 0.00 | 62 | 1015.8 |
| 20260507014008 | 12 | 215 | 0.0 | 4.8 | 0.00 | 0.00 | 0.00 | 61 | 1015.9 |
| 20260507013508 | 12 | 0 | 0.0 | 4.8 | 0.00 | 0.00 | 0.00 | 61 | 1015.8 |
| 20260507013028 | 12 | 0 | 0.0 | 3.2 | 0.00 | 0.00 | 0.00 | 62 | 1015.8 |
| 20260507012012 | 12 | 302 | 0.0 | 4.8 | 0.00 | 0.00 | 0.00 | 64 | 1015.8 |
| 20260507011529 | 12 | 0 | 1.6 | 4.8 | 0.00 | 0.00 | 0.00 | 65 | 1015.8 |
| 20260507011010 | 12 | 157 | 0.0 | 4.8 | 0.00 | 0.00 | 0.00 | 62 | 1015.9 |
| 20260507010508 | 12 | 0 | 0.0 | 4.8 | 0.00 | 0.00 | 0.00 | 61 | 1015.8 |
| 20260507010032 | 12 | 158 | 1.6 | 4.8 | 0.00 | 0.00 | 0.00 | 62 | 1015.8 |
| 20260507005510 | 12 | 202 | 1.6 | 4.8 | 0.00 | 0.00 | 0.00 | 62 | 1015.8 |
| 20260507005013 | 12 | 150 | 0.0 | 4.8 | 0.00 | 0.00 | 0.00 | 63 | 1015.9 |
| 20260507004525 | 12 | 224 | 1.6 | 3.2 | 0.00 | 0.00 | 0.00 | 63 | 1015.9 |
| 20260507004015 | 13 | 235 | 1.6 | 3.2 | 0.00 | 0.00 | 0.00 | 64 | 1015.8 |
| 20260507003509 | 13 | 0 | 0.0 | 3.2 | 0.00 | 0.00 | 0.00 | 69 | 1015.9 |
| 20260507003027 | 13 | 0 | 0.0 | 3.2 | 0.00 | 0.00 | 0.00 | 65 | 1016.0 |
| 20260507001017 | 13 | 184 | 1.6 | 4.8 | 0.00 | 0.00 | 0.00 | 61 | 1016.0 |
| 20260507000508 | 14 | 229 | 0.0 | 3.2 | 0.00 | 0.00 | 0.00 | 59 | 1016.0 |
| 20260507000035 | 14 | 205 | 0.0 | 11.3 | 0.00 | 0.00 | 0.00 | 59 | 1016.1 |
| 20260506235509 | 15 | 0 | 0.0 | 11.3 | 0.00 | 0.00 | 0.00 | 60 | 1016.0 |
| 20260506235010 | 15 | 226 | 3.2 | 14.5 | 0.00 | 0.00 | 0.00 | 67 | 1016.1 |
| 20260506234527 | 15 | 265 | 4.8 | 14.5 | 0.00 | 0.00 | 0.00 | 71 | 1016.1 |
| 20260506234010 | 14 | 268 | 1.6 | 9.7 | 0.00 | 0.00 | 0.00 | 66 | 1016.0 |
| 20260506233510 | 13 | 279 | 1.6 | 4.8 | 0.00 | 0.00 | 0.00 | 64 | 1016.1 |
| 20260506233026 | 13 | 0 | 0.0 | 3.2 | 0.00 | 0.00 | 0.00 | 61 | 1016.0 |
| 20260506232510 | 13 | 0 | 0.0 | 6.4 | 0.00 | 0.00 | 0.00 | 61 | 1016.0 |
| 20260506231528 | 13 | 0 | 0.0 | 8.0 | 0.00 | 0.00 | 0.00 | 62 | 1016.0 |
| 20260506230510 | 15 | 304 | 0.0 | 8.0 | 0.00 | 0.00 | 0.00 | 72 | 1016.2 |
| 20260506225510 | 13 | 0 | 0.0 | 3.2 | 0.00 | 0.00 | 0.00 | 67 | 1016.2 |
| 20260506225008 | 13 | 238 | 1.6 | 3.2 | 0.00 | 0.00 | 0.00 | 63 | 1016.3 |
| 20260506224529 | 13 | 0 | 1.6 | 4.8 | 0.00 | 0.00 | 0.00 | 62 | 1016.2 |
| 20260506224008 | 13 | 0 | 0.0 | 4.8 | 0.00 | 0.00 | 0.00 | 61 | 1016.4 |
| 20260506223511 | 13 | 240 | 0.0 | 4.8 | 0.00 | 0.00 | 0.00 | 61 | 1016.3 |
| 20260506223026 | 13 | 175 | 1.6 | 4.8 | 0.00 | 0.00 | 0.00 | 63 | 1016.3 |
| 20260506222509 | 13 | 0 | 0.0 | 4.8 | 0.00 | 0.00 | 0.00 | 64 | 1016.3 |
| 20260506222009 | 13 | 147 | 1.6 | 3.2 | 0.00 | 0.00 | 0.00 | 64 | 1016.3 |
| 20260506221526 | 13 | 151 | 0.0 | 3.2 | 0.00 | 0.00 | 0.00 | 60 | 1016.3 |
| 20260506221014 | 14 | 220 | 0.0 | 3.2 | 0.00 | 0.00 | 0.00 | 63 | 1016.3 |
| 20260506220511 | 13 | 210 | 0.0 | 3.2 | 0.00 | 0.00 | 0.00 | 60 | 1016.3 |
| 20260506220026 | 13 | 206 | 1.6 | 3.2 | 0.00 | 0.00 | 0.00 | 59 | 1016.1 |
| 20260506215511 | 14 | 0 | 1.6 | 3.2 | 0.00 | 0.00 | 0.00 | 59 | 1016.2 |
| 20260506215008 | 14 | 162 | 0.0 | 3.2 | 0.00 | 0.00 | 0.00 | 59 | 1016.2 |
| 20260506214528 | 15 | 0 | 0.0 | 3.2 | 0.00 | 0.00 | 0.00 | 60 | 1016.3 |
| 20260506214009 | 15 | 0 | 0.0 | 3.2 | 0.00 | 0.00 | 0.00 | 62 | 1016.4 |
| 20260506213511 | 16 | 203 | 0.0 | 4.8 | 0.00 | 0.00 | 0.00 | 70 | 1016.4 |
| 20260506213112 | 16 | 0 | 0.0 | 8.0 | 0.00 | 0.00 | 0.00 | 71 | 1016.3 |
| 20260506212510 | 16 | 266 | 1.6 | 8.0 | 0.00 | 0.00 | 0.00 | 72 | 1016.4 |
| 20260506212009 | 16 | 317 | 0.0 | 6.4 | 0.00 | 0.00 | 0.00 | 70 | 1016.5 |
| 20260506211527 | 16 | 0 | 1.6 | 16.1 | 0.00 | 0.00 | 0.00 | 69 | 1016.5 |
| 20260506211010 | 16 | 304 | 3.2 | 16.1 | 0.00 | 0.00 | 0.00 | 69 | 1016.6 |
| 20260506210508 | 17 | 293 | 3.2 | 12.9 | 0.00 | 0.00 | 0.00 | 68 | 1016.7 |
| 20260506210028 | 17 | 356 | 3.2 | 8.0 | 0.00 | 0.00 | 0.00 | 59 | 1016.7 |
| 20260506205510 | 17 | 0 | 0.0 | 6.4 | 0.00 | 0.00 | 0.00 | 40 | 1016.7 |
| 20260506205012 | 17 | 139 | 0.0 | 6.4 | 0.00 | 0.00 | 0.00 | 40 | 1016.5 |
| 20260506204529 | 17 | 122 | 3.2 | 11.3 | 0.00 | 0.00 | 0.00 | 41 | 1016.5 |
| 20260506204010 | 17 | 106 | 3.2 | 11.3 | 0.00 | 0.00 | 0.00 | 45 | 1016.7 |
| 20260506203517 | 17 | 76 | 6.4 | 11.3 | 0.00 | 0.00 | 0.00 | 45 | 1016.7 |
| 20260506203026 | 17 | 113 | 3.2 | 8.0 | 0.00 | 0.00 | 0.00 | 43 | 1016.6 |
| 20260506202512 | 17 | 84 | 3.2 | 6.4 | 0.00 | 0.00 | 0.00 | 42 | 1016.6 |
| 20260506202012 | 17 | 101 | 1.6 | 3.2 | 0.00 | 0.00 | 0.00 | 41 | 1016.6 |
| 20260506201526 | 17 | 167 | 0.0 | 6.4 | 0.00 | 0.00 | 0.00 | 42 | 1016.6 |
| 20260506201008 | 17 | 226 | 0.0 | 6.4 | 0.00 | 0.00 | 0.00 | 41 | 1016.6 |
| 20260506200512 | 17 | 236 | 3.2 | 6.4 | 0.00 | 0.00 | 0.00 | 40 | 1016.5 |
| 20260506200025 | 17 | 131 | 0.0 | 4.8 | 0.00 | 0.00 | 0.00 | 40 | 1016.4 |
| 20260506195510 | 17 | 73 | 0.0 | 3.2 | 0.00 | 0.00 | 0.00 | 41 | 1016.3 |
| 20260506195010 | 17 | 144 | 0.0 | 6.4 | 0.00 | 0.00 | 0.00 | 40 | 1016.3 |
| 20260506194526 | 17 | 153 | 1.6 | 6.4 | 0.00 | 0.00 | 0.00 | 39 | 1016.2 |
| 20260506194010 | 18 | 155 | 1.6 | 6.4 | 0.00 | 0.00 | 0.00 | 39 | 1016.1 |
| 20260506193511 | 18 | 142 | 0.0 | 4.8 | 0.00 | 0.00 | 0.00 | 37 | 1016.2 |
| 20260506193031 | 18 | 68 | 1.6 | 4.8 | 0.00 | 0.00 | 0.00 | 36 | 1016.3 |
| 20260506192514 | 18 | 0 | 1.6 | 4.8 | 0.00 | 0.00 | 0.00 | 36 | 1016.2 |
| 20260506192013 | 18 | 173 | 1.6 | 8.0 | 0.00 | 0.00 | 0.00 | 36 | 1016.2 |
| 20260506191528 | 18 | 125 | 3.2 | 8.0 | 0.00 | 0.00 | 0.00 | 35 | 1016.1 |
| 20260506191010 | 18 | 119 | 3.2 | 8.0 | 0.00 | 0.00 | 0.00 | 36 | 1016.1 |
| 20260506190509 | 18 | 0 | 0.0 | 8.0 | 0.00 | 0.00 | 0.00 | 35 | 1016.0 |
| 20260506190025 | 19 | 91 | 4.8 | 8.0 | 0.00 | 0.00 | 0.00 | 33 | 1016.0 |
| 20260506185509 | 20 | 62 | 1.6 | 6.4 | 0.00 | 0.00 | 0.00 | 31 | 1016.0 |
| 20260506185009 | 20 | 0 | 0.0 | 4.8 | 0.00 | 0.00 | 0.00 | 28 | 1015.9 |
| 20260506184527 | 20 | 272 | 1.6 | 9.7 | 0.00 | 0.00 | 0.00 | 27 | 1015.8 |
| 20260506184011 | 21 | 239 | 3.2 | 11.3 | 0.00 | 0.00 | 0.00 | 27 | 1015.7 |
| 20260506183513 | 21 | 264 | 1.6 | 11.3 | 0.00 | 0.00 | 0.00 | 27 | 1015.7 |
| 20260506183028 | 21 | 236 | 3.2 | 11.3 | 0.00 | 0.00 | 0.00 | 27 | 1015.5 |
| 20260506182511 | 21 | 259 | 1.6 | 9.7 | 0.00 | 0.00 | 0.00 | 28 | 1015.4 |
| 20260506182010 | 21 | 252 | 3.2 | 12.9 | 0.00 | 0.00 | 0.00 | 28 | 1015.4 |
| 20260506181530 | 21 | 248 | 1.6 | 12.9 | 0.00 | 0.00 | 0.00 | 28 | 1015.3 |
| 20260506181015 | 21 | 296 | 1.6 | 11.3 | 0.00 | 0.00 | 0.00 | 27 | 1015.4 |
| 20260506180515 | 21 | 269 | 1.6 | 8.0 | 0.00 | 0.00 | 0.00 | 27 | 1015.4 |
| 20260506180034 | 21 | 303 | 1.6 | 11.3 | 0.00 | 0.00 | 0.00 | 27 | 1015.3 |
| 20260506175513 | 21 | 263 | 1.6 | 11.3 | 0.00 | 0.00 | 0.00 | 27 | 1015.2 |
| 20260506175008 | 21 | 301 | 0.0 | 8.0 | 0.00 | 0.00 | 0.00 | 27 | 1015.2 |
| 20260506174528 | 21 | 275 | 1.6 | 8.0 | 0.00 | 0.00 | 0.00 | 26 | 1015.2 |
| 20260506174010 | 21 | 290 | 1.6 | 8.0 | 0.00 | 0.00 | 0.00 | 25 | 1015.0 |
| 20260506173512 | 21 | 265 | 1.6 | 8.0 | 0.00 | 0.00 | 0.00 | 25 | 1015.1 |
| 20260506173028 | 21 | 261 | 3.2 | 9.7 | 0.00 | 0.00 | 0.00 | 25 | 1015.0 |
| 20260506172511 | 21 | 300 | 1.6 | 9.7 | 0.00 | 0.00 | 0.00 | 25 | 1015.0 |
| 20260506172013 | 21 | 294 | 1.6 | 12.9 | 0.00 | 0.00 | 0.00 | 24 | 1015.0 |
| 20260506171527 | 22 | 295 | 3.2 | 12.9 | 0.00 | 0.00 | 0.00 | 24 | 1014.9 |
| 20260506171010 | 22 | 241 | 3.2 | 11.3 | 0.00 | 0.00 | 0.00 | 24 | 1014.8 |
| 20260506170511 | 22 | 304 | 1.6 | 16.1 | 0.00 | 0.00 | 0.00 | 24 | 1014.7 |
| 20260506170028 | 22 | 349 | 3.2 | 16.1 | 0.00 | 0.00 | 0.00 | 24 | 1014.7 |
| 20260506165513 | 22 | 256 | 4.8 | 16.1 | 0.00 | 0.00 | 0.00 | 23 | 1014.7 |
| 20260506165012 | 22 | 285 | 4.8 | 14.5 | 0.00 | 0.00 | 0.00 | 24 | 1014.6 |
| 20260506164529 | 22 | 285 | 4.8 | 16.1 | 0.00 | 0.00 | 0.00 | 24 | 1014.6 |
| 20260506164012 | 22 | 302 | 6.4 | 17.7 | 0.00 | 0.00 | 0.00 | 24 | 1014.6 |
| 20260506163512 | 22 | 288 | 8.0 | 17.7 | 0.00 | 0.00 | 0.00 | 25 | 1014.5 |
| 20260506163050 | 22 | 288 | 6.4 | 17.7 | 0.00 | 0.00 | 0.00 | 25 | 1014.6 |
| 20260506162514 | 22 | 303 | 4.8 | 17.7 | 0.00 | 0.00 | 0.00 | 24 | 1014.6 |
| 20260506162015 | 22 | 314 | 4.8 | 17.7 | 0.00 | 0.00 | 0.00 | 24 | 1014.5 |
| 20260506161527 | 22 | 323 | 6.4 | 20.9 | 0.00 | 0.00 | 0.00 | 23 | 1014.5 |
| 20260506161010 | 22 | 308 | 6.4 | 20.9 | 0.00 | 0.00 | 0.00 | 23 | 1014.5 |
| 20260506160511 | 22 | 309 | 4.8 | 25.7 | 0.00 | 0.00 | 0.00 | 24 | 1014.6 |
| 20260506160026 | 22 | 343 | 9.7 | 25.7 | 0.00 | 0.00 | 0.00 | 24 | 1014.4 |
| 20260506155509 | 22 | 259 | 4.8 | 19.3 | 0.00 | 0.00 | 0.00 | 24 | 1014.5 |
| 20260506155012 | 22 | 325 | 6.4 | 17.7 | 0.00 | 0.00 | 0.00 | 24 | 1014.4 |
| 20260506154528 | 22 | 270 | 4.8 | 17.7 | 0.00 | 0.00 | 0.00 | 26 | 1014.4 |
| 20260506154012 | 23 | 319 | 8.0 | 17.7 | 0.00 | 0.00 | 0.00 | 25 | 1014.4 |
| 20260506153512 | 23 | 261 | 4.8 | 17.7 | 0.00 | 0.00 | 0.00 | 25 | 1014.5 |
| 20260506153028 | 23 | 301 | 4.8 | 14.5 | 0.00 | 0.00 | 0.00 | 25 | 1014.5 |
| 20260506152513 | 23 | 285 | 4.8 | 24.1 | 0.00 | 0.00 | 0.00 | 24 | 1014.3 |
| 20260506152014 | 23 | 303 | 6.4 | 24.1 | 0.00 | 0.00 | 0.00 | 27 | 1014.3 |
| 20260506151528 | 23 | 307 | 6.4 | 24.1 | 0.00 | 0.00 | 0.00 | 28 | 1014.4 |
| 20260506151010 | 23 | 217 | 4.8 | 19.3 | 0.00 | 0.00 | 0.00 | 27 | 1014.5 |
| 20260506150511 | 23 | 309 | 3.2 | 20.9 | 0.00 | 0.00 | 0.00 | 25 | 1014.5 |
| 20260506150027 | 23 | 335 | 4.8 | 20.9 | 0.00 | 0.00 | 0.00 | 24 | 1014.4 |
| 20260506145515 | 23 | 276 | 4.8 | 19.3 | 0.00 | 0.00 | 0.00 | 24 | 1014.4 |
| 20260506145009 | 23 | 311 | 4.8 | 25.7 | 0.00 | 0.00 | 0.00 | 24 | 1014.4 |
| 20260506144530 | 23 | 290 | 8.0 | 25.7 | 0.00 | 0.00 | 0.00 | 22 | 1014.4 |
| 20260506144008 | 23 | 314 | 8.0 | 25.7 | 0.00 | 0.00 | 0.00 | 22 | 1014.3 |
| 20260506143515 | 24 | 307 | 6.4 | 19.3 | 0.00 | 0.00 | 0.00 | 21 | 1014.3 |
| 20260506143035 | 24 | 266 | 6.4 | 25.7 | 0.00 | 0.00 | 0.00 | 22 | 1014.3 |
| 20260506142512 | 24 | 309 | 6.4 | 25.7 | 0.00 | 0.00 | 0.00 | 21 | 1014.4 |
| 20260506141526 | 24 | 302 | 8.0 | 29.0 | 0.00 | 0.00 | 0.00 | 22 | 1014.2 |
| 20260506141008 | 24 | 267 | 8.0 | 19.3 | 0.00 | 0.00 | 0.00 | 23 | 1014.2 |
| 20260506140513 | 24 | 295 | 6.4 | 32.2 | 0.00 | 0.00 | 0.00 | 24 | 1014.1 |
| 20260506140028 | 25 | 266 | 6.4 | 32.2 | 0.00 | 0.00 | 0.00 | 24 | 1014.2 |
| 20260506135510 | 25 | 288 | 11.3 | 32.2 | 0.00 | 0.00 | 0.00 | 26 | 1014.2 |
| 20260506135013 | 25 | 316 | 8.0 | 22.5 | 0.00 | 0.00 | 0.00 | 26 | 1014.1 |
| 20260506134527 | 25 | 301 | 9.7 | 27.4 | 0.00 | 0.00 | 0.00 | 25 | 1014.0 |
| 20260506134016 | 24 | 300 | 11.3 | 30.6 | 0.00 | 0.00 | 0.00 | 27 | 1014.2 |
| 20260506133508 | 25 | 322 | 9.7 | 30.6 | 0.00 | 0.00 | 0.00 | 27 | 1014.1 |
| 20260506133026 | 25 | 316 | 6.4 | 25.7 | 0.00 | 0.00 | 0.00 | 28 | 1014.1 |
| 20260506132511 | 24 | 303 | 9.7 | 25.7 | 0.00 | 0.00 | 0.00 | 28 | 1014.3 |
| 20260506132013 | 25 | 326 | 9.7 | 24.1 | 0.00 | 0.00 | 0.00 | 26 | 1014.2 |
| 20260506131527 | 25 | 239 | 8.0 | 29.0 | 0.00 | 0.00 | 0.00 | 29 | 1014.3 |
| 20260506131007 | 25 | 277 | 11.3 | 29.0 | 0.00 | 0.00 | 0.00 | 29 | 1014.3 |
| 20260506130513 | 25 | 269 | 8.0 | 29.0 | 0.00 | 0.00 | 0.00 | 29 | 1014.3 |
| 20260506130026 | 25 | 291 | 11.3 | 24.1 | 0.00 | 0.00 | 0.00 | 23 | 1014.2 |
| 20260506125507 | 25 | 312 | 6.4 | 32.2 | 0.00 | 0.00 | 0.00 | 24 | 1014.3 |
| 20260506125008 | 25 | 321 | 12.9 | 32.2 | 0.00 | 0.00 | 0.00 | 25 | 1014.5 |
| 20260506124525 | 25 | 310 | 8.0 | 33.8 | 0.00 | 0.00 | 0.00 | 23 | 1014.5 |
| 20260506124010 | 24 | 289 | 11.3 | 33.8 | 0.00 | 0.00 | 0.00 | 24 | 1014.5 |
| 20260506123509 | 24 | 300 | 11.3 | 33.8 | 0.00 | 0.00 | 0.00 | 25 | 1014.5 |
| 20260506123027 | 24 | 288 | 16.1 | 30.6 | 0.00 | 0.00 | 0.00 | 28 | 1014.5 |
| 20260506122512 | 24 | 316 | 12.9 | 32.2 | 0.00 | 0.00 | 0.00 | 31 | 1014.6 |
| 20260506122009 | 24 | 302 | 12.9 | 32.2 | 0.00 | 0.00 | 0.00 | 32 | 1014.7 |
| 20260506121530 | 25 | 38 | 9.7 | 32.2 | 0.00 | 0.00 | 0.00 | 29 | 1014.5 |
| 20260506121010 | 25 | 296 | 8.0 | 24.1 | 0.00 | 0.00 | 0.00 | 31 | 1014.4 |
| 20260506120511 | 25 | 334 | 9.7 | 29.0 | 0.00 | 0.00 | 0.00 | 32 | 1014.5 |
| 20260506120027 | 24 | 14 | 14.5 | 35.4 | 0.00 | 0.00 | 0.00 | 29 | 1014.6 |
| 20260506115509 | 25 | 240 | 14.5 | 35.4 | 0.00 | 0.00 | 0.00 | 25 | 1014.4 |
| 20260506115013 | 25 | 318 | 11.3 | 27.4 | 0.00 | 0.00 | 0.00 | 22 | 1014.5 |
| 20260506114533 | 26 | 328 | 12.9 | 27.4 | 0.00 | 0.00 | 0.00 | 19 | 1014.5 |
| 20260506114008 | 26 | 326 | 8.0 | 24.1 | 0.00 | 0.00 | 0.00 | 20 | 1014.5 |
| 20260506113510 | 26 | 309 | 6.4 | 20.9 | 0.00 | 0.00 | 0.00 | 19 | 1014.6 |
| 20260506113028 | 26 | 328 | 8.0 | 25.7 | 0.00 | 0.00 | 0.00 | 19 | 1014.6 |
| 20260506112514 | 26 | 266 | 8.0 | 33.8 | 0.00 | 0.00 | 0.00 | 21 | 1014.6 |
| 20260506112016 | 26 | 293 | 11.3 | 33.8 | 0.00 | 0.00 | 0.00 | 19 | 1014.8 |
| 20260506111525 | 26 | 317 | 9.7 | 33.8 | 0.00 | 0.00 | 0.00 | 20 | 1014.9 |
| 20260506111011 | 25 | 312 | 6.4 | 22.5 | 0.00 | 0.00 | 0.00 | 21 | 1014.8 |
| 20260506110510 | 25 | 351 | 8.0 | 29.0 | 0.00 | 0.00 | 0.00 | 22 | 1015.0 |
| 20260506110031 | 24 | 307 | 11.3 | 29.0 | 0.00 | 0.00 | 0.00 | 25 | 1015.0 |
| 20260506105508 | 24 | 302 | 14.5 | 29.0 | 0.00 | 0.00 | 0.00 | 26 | 1015.0 |
| 20260506105009 | 24 | 8 | 16.1 | 32.2 | 0.00 | 0.00 | 0.00 | 28 | 1015.1 |
| 20260506104525 | 23 | 304 | 16.1 | 32.2 | 0.00 | 0.00 | 0.00 | 29 | 1015.1 |
| 20260506104011 | 23 | 323 | 16.1 | 32.2 | 0.00 | 0.00 | 0.00 | 29 | 1015.1 |
| 20260506103508 | 23 | 323 | 16.1 | 30.6 | 0.00 | 0.00 | 0.00 | 29 | 1015.3 |
| 20260506103029 | 23 | 290 | 16.1 | 33.8 | 0.00 | 0.00 | 0.00 | 29 | 1015.4 |
| 20260506102511 | 23 | 314 | 16.1 | 33.8 | 0.00 | 0.00 | 0.00 | 32 | 1015.4 |
| 20260506102019 | 23 | 313 | 17.7 | 33.8 | 0.00 | 0.00 | 0.00 | 33 | 1015.3 |
| 20260506101533 | 23 | 336 | 16.1 | 29.0 | 0.00 | 0.00 | 0.00 | 33 | 1015.4 |
| 20260506101011 | 23 | 295 | 14.5 | 30.6 | 0.00 | 0.00 | 0.00 | 32 | 1015.4 |
| 20260506100510 | 23 | 323 | 16.1 | 30.6 | 0.00 | 0.00 | 0.00 | 34 | 1015.4 |
| 20260506100025 | 23 | 329 | 16.1 | 22.5 | 0.00 | 0.00 | 0.00 | 36 | 1015.4 |
| 20260506095508 | 23 | 301 | 8.0 | 20.9 | 0.00 | 0.00 | 0.00 | 37 | 1015.5 |
| 20260506095017 | 23 | 316 | 11.3 | 20.9 | 0.00 | 0.00 | 0.00 | 36 | 1015.5 |
| 20260506094527 | 23 | 319 | 11.3 | 25.7 | 0.00 | 0.00 | 0.00 | 36 | 1015.5 |
| 20260506094009 | 23 | 321 | 12.9 | 29.0 | 0.00 | 0.00 | 0.00 | 37 | 1015.5 |
| 20260506093512 | 23 | 286 | 11.3 | 29.0 | 0.00 | 0.00 | 0.00 | 38 | 1015.5 |
| 20260506093031 | 23 | 269 | 14.5 | 25.7 | 0.00 | 0.00 | 0.00 | 38 | 1015.6 |
| 20260506092509 | 23 | 306 | 12.9 | 25.7 | 0.00 | 0.00 | 0.00 | 39 | 1015.7 |
| 20260506092013 | 23 | 334 | 11.3 | 22.5 | 0.00 | 0.00 | 0.00 | 37 | 1015.8 |
| 20260506091528 | 23 | 328 | 11.3 | 22.5 | 0.00 | 0.00 | 0.00 | 35 | 1015.8 |
| 20260506091010 | 23 | 309 | 11.3 | 24.1 | 0.00 | 0.00 | 0.00 | 35 | 1015.7 |
| 20260506090507 | 23 | 338 | 12.9 | 24.1 | 0.00 | 0.00 | 0.00 | 35 | 1015.8 |
| 20260506090027 | 23 | 317 | 12.9 | 24.1 | 0.00 | 0.00 | 0.00 | 35 | 1015.7 |
| 20260506085511 | 23 | 283 | 14.5 | 22.5 | 0.00 | 0.00 | 0.00 | 37 | 1015.7 |
| 20260506085010 | 22 | 341 | 14.5 | 25.7 | 0.00 | 0.00 | 0.00 | 38 | 1015.8 |
| 20260506084526 | 22 | 312 | 12.9 | 27.4 | 0.00 | 0.00 | 0.00 | 38 | 1015.7 |
| 20260506084010 | 22 | 290 | 16.1 | 27.4 | 0.00 | 0.00 | 0.00 | 38 | 1015.7 |
| 20260506083509 | 22 | 3 | 11.3 | 25.7 | 0.00 | 0.00 | 0.00 | 40 | 1015.8 |
| 20260506083027 | 22 | 291 | 12.9 | 25.7 | 0.00 | 0.00 | 0.00 | 39 | 1015.7 |
| 20260506082508 | 22 | 329 | 12.9 | 30.6 | 0.00 | 0.00 | 0.00 | 40 | 1015.8 |
| 20260506082012 | 22 | 320 | 11.3 | 30.6 | 0.00 | 0.00 | 0.00 | 41 | 1015.7 |
| 20260506081528 | 22 | 317 | 14.5 | 30.6 | 0.00 | 0.00 | 0.00 | 41 | 1015.8 |
| 20260506081011 | 22 | 251 | 14.5 | 24.1 | 0.00 | 0.00 | 0.00 | 38 | 1015.7 |
| 20260506080513 | 21 | 280 | 12.9 | 24.1 | 0.00 | 0.00 | 0.00 | 43 | 1015.7 |
| 20260506073512 | 21 | 330 | 12.9 | 22.5 | 0.00 | 0.00 | 0.00 | 48 | 1015.6 |
| 20260506073025 | 21 | 327 | 11.3 | 20.9 | 0.00 | 0.00 | 0.00 | 51 | 1015.7 |
| 20260506072512 | 21 | 349 | 9.7 | 24.1 | 0.00 | 0.00 | 0.00 | 47 | 1015.8 |
| 20260506072011 | 21 | 334 | 11.3 | 24.1 | 0.00 | 0.00 | 0.00 | 46 | 1015.8 |
| 20260506071530 | 21 | 320 | 9.7 | 17.7 | 0.00 | 0.00 | 0.00 | 54 | 1015.9 |
| 20260506071012 | 21 | 308 | 9.7 | 17.7 | 0.00 | 0.00 | 0.00 | 46 | 1015.9 |
| 20260506070509 | 20 | 339 | 9.7 | 17.7 | 0.00 | 0.00 | 0.00 | 51 | 1015.8 |
| 20260506062512 | 17 | 313 | 16.1 | 25.7 | 0.00 | 0.00 | 0.00 | 80 | 1016.1 |
| 20260506062013 | 17 | 271 | 11.3 | 24.1 | 0.00 | 0.00 | 0.00 | 80 | 1016.1 |
| 20260506061533 | 17 | 306 | 11.3 | 24.1 | 0.00 | 0.00 | 0.00 | 80 | 1016.0 |
| 20260506061010 | 17 | 333 | 11.3 | 22.5 | 0.00 | 0.00 | 0.00 | 80 | 1015.9 |
| 20260506060511 | 17 | 294 | 11.3 | 27.4 | 0.00 | 0.00 | 0.00 | 81 | 1015.9 |
| 20260506051011 | 16 | 328 | 9.7 | 24.1 | 0.00 | 0.00 | 0.00 | 83 | 1015.8 |
| 20260506050513 | 16 | 331 | 11.3 | 24.1 | 0.00 | 0.00 | 0.00 | 83 | 1015.7 |
| 20260506045011 | 16 | 327 | 8.0 | 19.3 | 0.00 | 0.00 | 0.00 | 83 | 1015.7 |
| 20260506044533 | 16 | 318 | 6.4 | 22.5 | 0.00 | 0.00 | 0.00 | 84 | 1015.7 |
| 20260506044016 | 16 | 302 | 11.3 | 22.5 | 0.00 | 0.00 | 0.00 | 84 | 1015.6 |
| 20260506043027 | 16 | 294 | 4.8 | 11.3 | 0.00 | 0.00 | 0.00 | 82 | 1015.6 |
| 20260506042511 | 16 | 274 | 4.8 | 11.3 | 0.00 | 0.00 | 0.00 | 82 | 1015.5 |
| 20260506042016 | 15 | 305 | 3.2 | 11.3 | 0.00 | 0.00 | 0.00 | 82 | 1015.6 |
| 20260506041526 | 15 | 283 | 3.2 | 11.3 | 0.00 | 0.00 | 0.00 | 79 | 1015.7 |
| 20260506041012 | 15 | 292 | 3.2 | 16.1 | 0.00 | 0.00 | 0.00 | 80 | 1015.6 |
| 20260506040508 | 15 | 304 | 6.4 | 16.1 | 0.00 | 0.00 | 0.00 | 83 | 1015.5 |
| 20260506040048 | 14 | 295 | 1.6 | 6.4 | 0.00 | 0.00 | 0.00 | 69 | 1015.5 |
| 20260506035510 | 14 | 224 | 1.6 | 8.0 | 0.00 | 0.00 | 0.00 | 69 | 1015.5 |
| 20260506035013 | 14 | 254 | 1.6 | 8.0 | 0.00 | 0.00 | 0.00 | 74 | 1015.5 |
| 20260506034528 | 15 | 297 | 3.2 | 11.3 | 0.00 | 0.00 | 0.00 | 79 | 1015.5 |
| 20260506034009 | 14 | 322 | 3.2 | 11.3 | 0.00 | 0.00 | 0.00 | 81 | 1015.5 |
| 20260506033507 | 13 | 0 | 0.0 | 1.6 | 0.00 | 0.00 | 0.00 | 68 | 1015.5 |
| 20260506033026 | 13 | 206 | 0.0 | 3.2 | 0.00 | 0.00 | 0.00 | 68 | 1015.4 |
| 20260506032510 | 13 | 221 | 0.0 | 4.8 | 0.00 | 0.00 | 0.00 | 67 | 1015.4 |
| 20260506032011 | 13 | 194 | 1.6 | 4.8 | 0.00 | 0.00 | 0.00 | 69 | 1015.4 |
| 20260506031541 | 13 | 0 | 0.0 | 4.8 | 0.00 | 0.00 | 0.00 | 70 | 1015.4 |